Regional Weather Roundup
Issued by NWS

Home | Current Version | Previous Version | Graphics & Text | Print | Product List | Glossary Off
Versions: 1 2 3 4 5 6 7 8 9 10 11 12 13 14 15 16 17 18 19 20 21 22 23 24 25 26 27 28 29 30 31 32 33 34 35 36 37 38 39 40 41 42 43 44 45 46 47 48 49 50

000
ASUS43 KDMX 290807
RWRIA

WEATHER ROUNDUP FOR IOWA
NATIONAL WEATHER SERVICE DES MOINES IA
300 AM CDT TUE JUL 29 2014

NOTE: "FAIR" INDICATES FEW OR NO CLOUDS BELOW 12,000 FEET WITH NO
SIGNIFICANT WEATHER AND/OR OBSTRUCTIONS TO VISIBILITY.

* - THESE STATIONS ARE NOT NWS STATIONS...THUS NOT UNDER NWS
QUALITY CONTROL.  THEY ALSO DO NOT REPORT WEATHER SUCH
AS PRECIPITATION OR FOG.

IAZ001>003-012>014-020>022-031>034-043>046-290900-
   NORTHWEST IOWA

CITY           SKY/WX    TMP DP  RH WIND       PRES   REMARKS
CARROLL *      CLEAR     54  54 100 W6        30.19S
CHEROKEE *     CLEAR     54  54 100 CALM      30.20S
DENISON *      CLEAR     54  54 100 CALM      30.18F
LE MARS *      CLEAR     54  52  94 CALM      30.21S
ORANGE CITY *  CLEAR     61  52  72 CALM      30.21S
SHELDON *      CLEAR     50  50 100 CALM      30.20F
SIOUX CITY     CLEAR     56  54  93 CALM      30.21S
SPENCER        CLEAR     50  48  93 W7        30.20F
STORM LAKE *   CLEAR     55  55 100 N6        30.21S
$$

IAZ055>058-069>071-079>083-090>094-290900-
   SOUTHWEST IOWA

CITY           SKY/WX    TMP DP  RH WIND       PRES   REMARKS
ATLANTIC *     CLEAR     55  55 100 CALM      30.19S
AUDUBON *      CLEAR     55  54  94 CALM      30.21S
CLARINDA *     CLEAR     55  55 100 N3        30.20S
COUNCIL BLFS *   N/A     59  59 100 CALM      30.18F
CRESTON *      CLEAR     59  57  94 N7        30.19S
HARLAN  *      CLEAR     57  57 100 CALM      30.23S
LAMONI         PTCLDY    59  57  93 N7        30.17F
RED OAK *      CLEAR     55  54  94 CALM      30.19S
SHENANDOAH *   CLEAR     54  54 100 CALM      30.19F
$$

IAZ047>049-059>061-072>074-084-290900-
   CENTRAL IOWA

CITY           SKY/WX    TMP DP  RH WIND       PRES   REMARKS
AMES           CLEAR     57  54  89 CALM      30.16F
ANKENY *       CLEAR     55  55 100 CALM      30.16F FOG
CHARITON *     CLEAR     59  57  94 NW7       30.17S
DES MOINES     CLEAR     61  57  87 CALM      30.16S
GRINNELL*      CLEAR     57  55  94 NW5       30.16S
KNOXVILLE *    CLEAR     57  55  94 NW7       30.15S
MARSHALLTOWN   CLEAR     55  54  96 W6        30.15S
PELLA *        CLEAR     57  57 100 NW3       30.16F
PERRY *          N/A     55  55 100 W6        30.18S
$$

IAZ004>006-015-016-023>025-035-036-290900-
   NORTH CENTRAL IOWA

CITY           SKY/WX    TMP DP  RH WIND       PRES   REMARKS
ALGONA *       CLEAR     57  54  88 NW6       30.18F
CLARION *      CLEAR     54  54 100 CALM      30.17F
ESTHERVILLE    CLEAR     55  52  89 NW7       30.18F
FORT DODGE *   CLEAR     57  54  88 NW5       30.19S
MASON CITY     CLEAR     54  53  97 W7        30.17F
FOREST CITY *  CLEAR     55  54  94 E3        30.16F
IOWA FALLS *     N/A     55  54  94 W5        30.17S
$$

IAZ007>011-017>019-026>030-037>042-050>054-066-290900-
   NORTHEAST IOWA

CITY           SKY/WX    TMP DP  RH WIND       PRES   REMARKS
CEDAR RAPIDS   CLEAR     54  52  93 W6        30.12F
CHARLES CITY * CLEAR     55  54  94 W6        30.15S
CLINTON *      CLEAR     52  48  87 W5        30.13S
DECORAH *      CLEAR     55  54  94 CALM      30.11F
DUBUQUE        CLEAR     54  51  90 CALM      30.11F
MONTICELLO *   CLEAR     50  50 100 CALM      30.11F
OELWEIN *      CLEAR     54  52  94 W7        30.14S
WATERLOO       CLEAR     56  55  97 NW3       30.13F
$$

IAZ064-065-067-068-078-290900-
   EAST CENTRAL IOWA

CITY           SKY/WX    TMP DP  RH WIND       PRES   REMARKS
DAVENPORT      CLEAR     51  49  92 W5        30.11F
IOWA CITY      CLEAR     57  56  96 CALM      30.14S
MT. PLEASANT * CLEAR     59  57  94 W3        30.13S
MUSCATINE *    CLEAR     57  55  94 CALM      30.12S
QUAD CITIES    CLEAR     54  51  90 CALM      30.11S
$$

IAZ062-063-075>077-085>089-095>099-290900-
   SOUTHEAST IOWA

CITY           SKY/WX    TMP DP  RH WIND       PRES   REMARKS
BURLINGTON     CLEAR     58  56  93 NW7       30.12S
FAIRFIELD *    CLEAR     57  55  94 NW6       30.14S
FORT MADISON * CLEAR     59  57  94 W3        30.14S
KEOKUK *       CLEAR     57  57 100 W5        30.12F
OSKALOOSA *      N/A     57  55  94 W7        30.15S
CENTERVILLE *  CLEAR     55  55 100 W5        30.17S
OTTUMWA        CLEAR     57  55  93 W7        30.15S
WASHINGTON *   CLEAR     57  55  94 NW6       30.13S
$$

ABBREVIATIONS USED IN REMARKS
   TC - TEMPERATURES IN CELSIUS
  WCI - WIND CHILL INDEX
   HX - HEAT INDEX
  VSB - VISIBILITY
$$



USA.gov is the U.S. government's official web portal to all federal, state and local government web resources and services.